Find Starlink 1598

NORAD ID: 46160 Int'l Des: 2020-057 Owner: SPXS Country: US Constellation: starlink operational
LEOCIRCULAR

当前视图

正在加载3D地球...

关于 Starlink 1598

正在加载描述...

即将过境

Passes for default location (London). Set your location on the main map for personalized predictions.

高度历史

Loading altitude history...

两行轨道根数

1 46160U 20057AV 26151.00002315 .00017230 00000-0 14151-3 0 9995
2 46160 53.0445 241.7421 0001053 176.5730 2.9733 15.70594513 5873
Epoch: May 31, 2026 • Age: 15 hours

当前状态

高度 361.0 km
速度 7.70 km/s
星下点 39.60°N, 166.81°E
发射日期 Aug 18, 2020
运行时间 5.7 years
类型 internet

技术详情

分类 Payload
质量 260.00 kg
干质量 248.00 kg
总质量 260.00 kg
长度 0.20 m
直径 2.80 m
跨度 9.00 m
形状 Box + pan
制造商 SPXS
平台类型 Starlink
阶段状态 In Orbit
所有者/国家 SPXS/US

Most Searched